Regional Weather Roundup
Issued by NWS

Home | Current Version | Previous Version | Graphics & Text | Print | Product List | Glossary On
Versions: 1 2 3 4 5 6 7 8 9 10 11 12 13 14 15 16 17 18 19 20 21 22 23 24 25 26 27 28 29 30 31 32 33 34 35 36 37 38 39 40 41 42 43 44 45 46 47 48 49 50
000
ASUS43 KLSX 311007
RWRMO

WEATHER SUMMARY FOR MISSOURI
NATIONAL WEATHER SERVICE SPRINGFIELD MO
500 AM CDT THU JUL 31 2014

NOTE: "FAIR" INDICATES FEW OR NO CLOUDS BELOW 12,000 FEET WITH NO
       SIGNIFICANT WEATHER AND/OR OBSTRUCTIONS TO VISIBILITY.
       CURRENT SKY AND/OR WEATHER CONDITIONS ARE NOT AVAILABLE FOR
       CHILLICOTHE AND FARMINGTON.

MOZ001>031-035>038-043-044-053-054-311100-
...NORTHERN AND WESTERN MISSOURI...

CITY           SKY/WX    TMP DP  RH WIND       PRES   REMARKS
KANSAS CTY INT PTCLDY    60  56  86 N5        30.11R
KANSAS C DTWN  CLEAR     64  60  87 CALM      30.09S
LEE`S SUMMIT   CLEAR     61  59  93 CALM      30.10S
ST JOSEPH      FOG       53  52  96 CALM      30.11R VSB 1/2
CHILLICOTHE      N/A     59  55  87 CALM      30.11S
KIRKSVILLE     CLEAR     55  53  93 CALM      30.10S FOG

$$
MOZ066>068-077>081-088>096-101>105-311100-
...SOUTHWEST MISSOURI...

CITY           SKY/WX    TMP DP  RH WIND       PRES   REMARKS
SPRINGFIELD    CLOUDY    68  65  90 CALM      30.10R
JOPLIN         CLOUDY    65  64  97 NE5       30.09S FOG

$$
MOZ032>034-039>042-045>050-055>058-069>072-311100-
...CENTRAL MISSOURI...

CITY           SKY/WX    TMP DP  RH WIND       PRES   REMARKS
COLUMBIA       CLEAR     61  57  87 NE5       30.09S
JEFFERSON CITY CLEAR     59  57  93 CALM      30.08S
ROLLA          CLEAR     59  58  96 CALM      30.08S FOG
SEDALIA        CLEAR     60  58  92 S5        30.09S
WHITEMAN AFB   CLEAR     58  52  81 SW2       30.09R
OSAGE BEACH    CLOUDY    57  55  94 CALM      30.09S VSB 1/4

$$
MOZ051-052-059>065-311100-
...EAST CENTRAL MISSOURI...

CITY           SKY/WX    TMP DP  RH WIND       PRES   REMARKS
ST LOUIS INTL  CLEAR     66  59  78 CALM      30.08R
SPIRIT OF STL  CLEAR     59  58  96 CALM      30.07R
ST CHARLES     CLEAR     60  57  89 CALM      30.06S

$$
MOZ072>076-082>087-097>100-106>115-311100-
...SOUTH CENTRAL AND SOUTHEAST MISSOURI...

CITY           SKY/WX    TMP DP  RH WIND       PRES   REMARKS
CAPE GIRARDEAU PTCLDY    60  59  96 S3        30.07S FOG
FARMINGTON     CLOUDY    57  55  94 CALM      30.10S VSB 1/4
POPLAR BLUFF   CLOUDY    66  63  90 CALM      30.06S
WEST PLAINS    CLOUDY    66  63  90 CALM      30.11R

$$


USA.gov is the U.S. government's official web portal to all federal, state and local government web resources and services.